Location: Oshawa
(43.9000°N, 78.8670°W)
Time: 18:14:28
(UTC-05:00)

Amateur Radio Satellites - All Passes

Search period start: 24 January 2017 17:44
Search period end: 25 January 2017 17:44
Location: Oshawa, 43.9000°N, 78.8670°W

Satellite Date Start Highest point End Downlink Frequencies (MHz)
Time Altitude Azimuth
GOMX 1 24 Jan 17:50:22 17:55:11 35° 263° (W) 17:59:48 467.674
CANX-2 24 Jan 17:54:07 17:57:02 18° 64° (ENE) 17:59:59 2200.000
NOAA 18 24 Jan 17:54:57 18:00:24 67° 72° (ENE) 18:05:51 137.9125
SEEDS 24 Jan 17:56:53 17:58:18 12° 61° (ENE) 17:59:44 437.485
AUBIESAT-1 24 Jan 18:01:22 18:03:36 17° 299° (WNW) 18:05:49 437.475
DOVE 4 24 Jan 18:05:20 18:10:07 54° 260° (W) 18:14:39 437.250
CUTE-I 24 Jan 18:08:01 18:13:12 55° 260° (W) 18:18:26 437.470
Cosmos 2499 24 Jan 18:08:24 18:14:52 27° 83° (E) 18:21:00 435.465 / 435.565
AIST 2 24 Jan 18:14:14 18:18:01 36° 117° (ESE) 18:21:52 435.215
BRITE-PL 24 Jan 18:14:16 18:16:02 11° 274° (W) 18:17:48 437.365/2234.400
LilacSat-2 24 Jan 18:29:44 18:32:41 21° 266° (W) 18:35:39 437.200
KKS-1 24 Jan 18:30:23 18:31:17 11° 302° (WNW) 18:32:10 437.445
GONETS M04 24 Jan 18:36:19 18:43:50 34° 84° (E) 18:51:23
NOAA 15 24 Jan 18:45:46 18:50:05 25° 266° (W) 18:54:27 137.62
Cubesat XI-IV 24 Jan 18:54:12 18:58:20 23° 267° (W) 19:02:29 437.490
HO-68 24 Jan 18:57:57 19:05:09 86° 73° (ENE) 19:12:24 435.675
CUTE 1.7 + AOD 2 24 Jan 18:57:57 19:02:11 73° 76° (ENE) 19:06:29 437.475
CINEMA 3 24 Jan 18:59:49 19:04:06 59° 260° (W) 19:08:16 145.822/145.860
CUBEBUG 2 24 Jan 19:22:25 19:26:28 55° 73° (ENE) 19:30:32 437.445
FUNcube-1 24 Jan 19:23:35 19:26:40 21° 66° (ENE) 19:29:47 145.935
COMPASS 1 24 Jan 19:25:18 19:29:27 64° 75° (ENE) 19:33:39 437.405
CANX-2 24 Jan 19:28:28 19:32:33 44° 262° (W) 19:36:41 2200.000
SEEDS 24 Jan 19:29:08 19:33:22 77° 259° (W) 19:37:38 437.485
AAUSAT CUBESAT 2 24 Jan 19:31:40 19:35:46 57° 74° (ENE) 19:39:54 437.432
NOAA 18 24 Jan 19:37:57 19:41:32 17° 269° (W) 19:45:07 137.9125
UWE-3 24 Jan 19:40:38 19:44:41 55° 73° (ENE) 19:48:46 435.000/436.395/437.385
AO-85 24 Jan 19:43:32 19:44:12 10° 32° (NNE) 19:44:53 145.980
STRAND 1 24 Jan 19:45:31 19:50:42 79° 104° (ESE) 19:55:51 437.568
ZACube-1 24 Jan 19:48:35 19:52:28 40° 71° (ENE) 19:56:24 437.345
ISS 24 Jan 19:52:35 19:54:33 15° 133° (SE) 19:56:31 145.825
AIST 2 24 Jan 19:53:02 19:56:34 27° 315° (NW) 20:00:10 435.215
Cosmos 2499 24 Jan 19:59:14 20:07:27 65° 281° (WNW) 20:15:05 435.465 / 435.565
DELFI C3 24 Jan 20:07:35 20:10:25 19° 66° (ENE) 20:13:16 145.870
Oscar 11 24 Jan 20:15:27 20:19:44 69° 74° (ENE) 20:24:04 145.826/435.025
GONETS M04 24 Jan 20:31:42 20:40:12 56° 284° (WNW) 20:48:50
CUTE 1.7 + AOD 2 24 Jan 20:37:37 20:38:31 11° 272° (W) 20:39:27 437.475
PRISM 24 Jan 20:48:13 20:51:04 18° 93° (E) 20:53:54 437.425
HO-68 24 Jan 20:49:03 20:53:44 18° 271° (W) 20:58:26 435.675
HUMSAT D 24 Jan 20:52:33 20:56:14 32° 69° (ENE) 20:59:58 437.325/437.525
FUNcube-1 24 Jan 20:58:53 21:02:41 36° 263° (W) 21:06:34 145.935
CUBEBUG 2 24 Jan 21:01:34 21:03:27 13° 270° (W) 21:05:23 437.445
COMPASS 1 24 Jan 21:03:53 21:05:25 12° 271° (W) 21:06:58 437.405
UNISAT 6 24 Jan 21:06:36 21:07:19 10° 88° (E) 21:08:02 437.425
AAUSAT CUBESAT 2 24 Jan 21:09:39 21:11:36 13° 270° (W) 21:13:33 437.432
TIGRISAT 24 Jan 21:17:09 21:19:14 13° 90° (E) 21:21:19 435.000
UWE-3 24 Jan 21:19:35 21:21:31 13° 270° (W) 21:23:28 435.000/436.395/437.385
AO-85 24 Jan 21:21:33 21:25:26 62° 52° (NE) 21:29:19 145.980
ZACube-1 24 Jan 21:26:06 21:28:57 18° 268° (W) 21:31:49 437.345
STRAND 1 24 Jan 21:26:19 21:29:13 15° 301° (WNW) 21:32:07 437.568
ISS 24 Jan 21:27:24 21:30:39 75° 330° (NNW) 21:33:55 145.825
ESTCUBE 1 24 Jan 21:29:45 21:32:04 14° 61° (ENE) 21:34:23 437.505/2401.250
JAS-2 24 Jan 21:32:20 21:36:00 14° 85° (E) 21:39:45 435.910
ANTELSAT 24 Jan 21:32:38 21:35:58 20° 93° (E) 21:39:21 437.575/2403.000
DELFI C3 24 Jan 21:41:12 21:44:57 38° 262° (W) 21:48:44 145.870
RS-15 24 Jan 21:51:32 22:01:44 36° 105° (ESE) 22:12:15 29.354- 29.394
CUBEBUG 1 24 Jan 21:53:35 21:55:50 14° 61° (ENE) 21:58:04 437.445
Oscar 11 24 Jan 21:54:52 21:56:21 11° 271° (W) 21:57:50 145.826/435.025
Cosmos 2499 24 Jan 21:58:49 22:02:08 13° 303° (WNW) 22:05:22 435.465 / 435.565
AISAT 24 Jan 22:22:11 22:25:13 18° 63° (ENE) 22:28:14 437.250
PRISM 24 Jan 22:22:41 22:26:31 39° 290° (WNW) 22:30:19 437.425
BY70-1 24 Jan 22:26:37 22:29:44 86° 253° (WSW) 22:33:03 436.1900
HUMSAT D 24 Jan 22:28:39 22:31:53 22° 266° (W) 22:35:11 437.325/437.525
GONETS M04 24 Jan 22:36:30 22:39:26 12° 309° (NW) 22:42:21
UNISAT 6 24 Jan 22:40:03 22:44:33 82° 286° (WNW) 22:49:08 437.425
SPROUT 24 Jan 22:46:35 22:49:47 21° 66° (ENE) 22:53:00 437.525
TIGRISAT 24 Jan 22:51:52 22:56:19 66° 286° (WNW) 23:00:51 435.000
VELOX 1 24 Jan 22:54:03 22:58:05 35° 69° (ENE) 23:02:07 145.980
BEESAT 3 24 Jan 22:55:40 22:59:01 25° 44° (NE) 23:02:20 437.485
UKube-1 24 Jan 23:00:28 23:03:03 16° 62° (ENE) 23:05:37 .
ESTCUBE 1 24 Jan 23:03:47 23:08:18 71° 258° (WSW) 23:12:51 437.505/2401.250
AO-85 24 Jan 23:03:48 23:05:18 12° 250° (WSW) 23:06:48 145.980
ISS 24 Jan 23:04:49 23:07:31 23° 349° (NNW) 23:10:14 145.825
QB50P1 24 Jan 23:07:27 23:10:30 19° 93° (E) 23:13:33 145.935-145.965
ANTELSAT 24 Jan 23:08:36 23:12:49 42° 289° (WNW) 23:17:09 437.575/2403.000
DX 1 24 Jan 23:10:08 23:13:44 26° 66° (ENE) 23:17:20 434.975-435.025
POLYITAN 1 24 Jan 23:13:00 23:16:21 22° 94° (E) 23:19:41 437.675
QB50P2 24 Jan 23:14:20 23:17:50 24° 95° (E) 23:21:19 145.880/145.840
JAS-2 24 Jan 23:14:37 23:22:00 72° 102° (ESE) 23:29:50 435.910
CUBEBUG 1 24 Jan 23:27:12 23:31:35 66° 258° (WSW) 23:35:57 437.445
50 SAT 24 Jan 23:33:27 23:37:00 67° 75° (ENE) 23:40:34 437.505
POPSAT HIP 1 24 Jan 23:34:14 23:38:09 36° 97° (E) 23:42:04 437.405
DUCHIFAT 1 24 Jan 23:38:43 23:42:34 34° 97° (E) 23:46:26 145.980
NANOSAT C BR1 24 Jan 23:46:48 23:50:53 47° 99° (E) 23:54:57 145.865
PCSat 24 Jan 23:46:54 23:52:14 63° 116° (ESE) 23:57:36 145.827
BEESAT 2 24 Jan 23:51:07 23:54:54 37° 49° (NE) 23:58:40 435.950
AIST 1 24 Jan 23:52:32 23:56:14 28° 74° (ENE) 23:59:53
BUGSAT 1 24 Jan 23:53:38 23:56:26 18° 93° (E) 23:59:15 437.445
YUBILEINY 24 Jan 23:55:37 00:03:32 35° 68° (ENE) 00:11:20 435.215
AISAT 24 Jan 23:57:01 00:01:19 48° 260° (W) 00:05:37 437.250
TISAT 1 24 Jan 23:57:10 00:00:02 18° 64° (ENE) 00:02:54 437.305
Cosmos 2504 24 Jan 23:59:21 00:03:49 17° 60° (ENE) 00:08:11 435.465 / 435.565
RS-15 25 Jan 00:01:17 00:13:14 75° 308° (NW) 00:25:42 29.354- 29.394
PHONESAT 2.4 25 Jan 00:17:48 00:19:24 17° 163° (SSE) 00:20:58 2401.200-2431.200
SPROUT 25 Jan 00:21:32 00:25:29 37° 262° (W) 00:29:26 437.525
Oscar 19 25 Jan 00:25:03 00:27:11 12° 88° (E) 00:29:18 437.125/150
VELOX 1 25 Jan 00:31:01 00:34:35 24° 266° (W) 00:38:12 145.980
BEESAT 3 25 Jan 00:33:00 00:36:43 37° 243° (WSW) 00:40:25 437.485
UKube-1 25 Jan 00:34:23 00:38:38 56° 259° (W) 00:42:54 .
ISS 25 Jan 00:42:06 00:44:44 22° 9° (N) 00:47:23 145.825
QB50P1 25 Jan 00:42:28 00:46:25 39° 290° (WNW) 00:50:21 145.935-145.965
DX 1 25 Jan 00:45:53 00:49:47 32° 263° (W) 00:53:43 434.975-435.025
POLYITAN 1 25 Jan 00:48:22 00:52:12 34° 291° (WNW) 00:56:03 437.675
Cosmos 2491 25 Jan 00:48:52 00:56:22 34° 84° (E) 01:03:55 435.465 / 435.565
QB50P2 25 Jan 00:49:54 00:53:38 31° 291° (WNW) 00:57:22 145.880/145.840
ITUPSAT 1 25 Jan 00:53:50 00:56:59 18° 61° (ENE) 01:00:07 437.325
JAS-2 25 Jan 01:00:33 01:06:27 28° 299° (WNW) 01:12:41 435.910
POPSAT HIP 1 25 Jan 01:10:30 01:13:43 22° 294° (WNW) 01:16:57 437.405
DUCHIFAT 1 25 Jan 01:14:48 01:18:04 22° 294° (WNW) 01:21:19 145.980
Gurwin Techsat 1B 25 Jan 01:17:53 01:22:00 22° 93° (E) 01:26:04 435.225
NANOSAT C BR1 25 Jan 01:23:29 01:26:15 17° 296° (WNW) 01:29:00 145.865
BEESAT 25 Jan 01:23:41 01:27:55 33° 67° (ENE) 01:32:10 436.000
SWISSCUBE 25 Jan 01:25:41 01:30:03 38° 69° (ENE) 01:34:29 437.505
BUGSAT 1 25 Jan 01:28:11 01:31:57 38° 289° (WNW) 01:35:45 437.445
BEESAT 2 25 Jan 01:29:16 01:32:31 23° 246° (WSW) 01:35:43 435.950
AIST 1 25 Jan 01:30:14 01:33:44 25° 271° (W) 01:37:12
TISAT 1 25 Jan 01:31:24 01:35:22 42° 261° (W) 01:39:21 437.305
PCSat 25 Jan 01:31:41 01:36:04 24° 317° (NW) 01:40:29 145.827
PHONESAT 2.4 25 Jan 01:50:45 01:52:46 32° 179° (S) 01:54:46 2401.200-2431.200
Cosmos 2504 25 Jan 01:51:02 01:58:25 88° 82° (E) 02:05:35 435.465 / 435.565
YUBILEINY 25 Jan 01:52:11 02:00:43 56° 270° (W) 02:09:10 435.215
Oscar 19 25 Jan 02:01:57 02:07:09 83° 285° (WNW) 02:12:17 437.125/150
MOZHAYETS 4 25 Jan 02:11:38 02:15:36 30° 67° (ENE) 02:19:35
KKS-1 25 Jan 02:17:00 02:18:32 12° 59° (ENE) 02:20:05 437.445
RS-15 25 Jan 02:17:37 02:28:18 33° 338° (NNW) 02:39:10 29.354- 29.394
ISS 25 Jan 02:18:26 02:21:40 63° 28° (NNE) 02:24:53 145.825
ITUPSAT 1 25 Jan 02:29:39 02:34:20 59° 259° (W) 02:39:05 437.325
CUSAT 1 25 Jan 02:32:11 02:37:47 61° 94° (E) 02:44:52 437.405
AIST 2 25 Jan 02:33:55 02:37:56 39° 49° (NE) 02:41:56 435.215
DANDE 25 Jan 02:34:39 02:37:28 16° 78° (ENE) 02:40:44 436.750
M-CUBED/EXP-1 PRIME 25 Jan 02:40:39 02:44:20 31° 65° (ENE) 02:47:48 437.505
Cosmos 2491 25 Jan 02:44:19 02:52:48 55° 284° (WNW) 03:01:22 435.465 / 435.565
AO-7 25 Jan 02:44:36 02:51:11 25° 93° (E) 02:57:40 29.400- 29.500
STARS 25 Jan 02:55:12 02:57:16 13° 60° (ENE) 02:59:20 437.465
ITAMSAT 1 25 Jan 02:56:11 03:00:57 35° 97° (E) 03:05:41 435.822/435.867
Gurwin Techsat 1B 25 Jan 02:57:04 03:02:13 51° 290° (WNW) 03:07:20 435.225
BEESAT 25 Jan 03:01:35 03:05:41 29° 264° (W) 03:09:50 436.000
SWISSCUBE 25 Jan 03:04:04 03:07:57 25° 266° (W) 03:11:52 437.505
CUBESAT XI-V 25 Jan 03:11:45 03:15:15 21° 64° (ENE) 03:18:45 437.345
AUBIESAT-1 25 Jan 03:12:28 03:16:30 54° 68° (ENE) 03:20:15 437.475
PHONESAT 2.4 25 Jan 03:24:27 03:26:08 19° 195° (SSW) 03:27:48 2401.200-2431.200
Oscar 19 25 Jan 03:43:34 03:45:38 12° 304° (WNW) 03:47:43 437.125/150
Cosmos 2504 25 Jan 03:46:38 03:50:36 16° 283° (WNW) 03:54:33 435.465 / 435.565
MOZHAYETS 4 25 Jan 03:48:40 03:52:42 30° 265° (W) 03:56:46
KKS-1 25 Jan 03:50:00 03:54:26 83° 254° (WSW) 03:58:54 437.445
ISS 25 Jan 03:55:32 03:57:51 18° 226° (SW) 04:00:10 145.825
AIST 2 25 Jan 04:12:49 04:16:13 24° 247° (WSW) 04:19:36 435.215
DANDE 25 Jan 04:14:46 04:19:08 59° 286° (WNW) 04:25:03 436.750
M-CUBED/EXP-1 PRIME 25 Jan 04:15:19 04:18:47 24° 258° (WSW) 04:22:05 437.505
CUSAT 1 25 Jan 04:15:26 04:20:26 26° 299° (WNW) 04:26:19 437.405
STARS 25 Jan 04:28:42 04:33:03 70° 257° (WSW) 04:37:25 437.465
RS-15 25 Jan 04:35:28 04:45:50 29° 13° (NNE) 04:56:06 29.354- 29.394
ITAMSAT 1 25 Jan 04:35:45 04:40:20 32° 294° (WNW) 04:44:55 435.822/435.867
BRITE-PL 25 Jan 04:35:53 04:39:57 28° 94° (E) 04:43:46 437.365/2234.400
AO-7 25 Jan 04:36:20 04:44:42 76° 292° (WNW) 04:52:59 29.400- 29.500
GONETS M04 25 Jan 04:44:33 04:50:20 19° 58° (ENE) 04:56:07
CUBESAT XI-V 25 Jan 04:47:46 04:52:18 46° 261° (W) 04:56:51 437.345
AUBIESAT-1 25 Jan 04:49:05 04:51:06 13° 262° (W) 04:53:04 437.475
Cosmos 2491 25 Jan 04:49:20 04:52:02 12° 309° (NW) 04:54:46 435.465 / 435.565
HORYU 2 25 Jan 04:49:55 04:52:46 16° 92° (E) 04:55:37 437.375
O/OREOS (USA 219) 25 Jan 04:51:09 04:54:52 26° 104° (ESE) 04:58:36 437.305
NOAA 15 25 Jan 05:20:14 05:23:08 15° 89° (E) 05:26:01 137.62
STRAND 1 25 Jan 05:25:49 05:29:12 18° 61° (ENE) 05:32:37 437.568
Cubesat XI-IV 25 Jan 05:29:39 05:33:09 17° 91° (E) 05:36:39 437.490
Cosmos 2499 25 Jan 05:48:53 05:55:43 47° 74° (ENE) 06:02:28 435.465 / 435.565
GOMX 1 25 Jan 05:50:38 05:54:58 65° 101° (E) 05:59:05 467.674
SO-50 25 Jan 05:54:34 05:58:03 21° 112° (ESE) 06:01:31 436.795
LilacSat-2 25 Jan 06:00:38 06:04:13 34° 97° (E) 06:07:46 437.200
DOVE 4 25 Jan 06:02:55 06:06:39 32° 96° (E) 06:10:23 437.250
BRITE-PL 25 Jan 06:14:18 06:18:26 30° 294° (WNW) 06:22:18 437.365/2234.400
NOAA 18 25 Jan 06:16:09 06:20:34 25° 94° (E) 06:24:57 137.9125
CUTE-I 25 Jan 06:23:24 06:28:38 53° 100° (E) 06:33:52 437.470
HORYU 2 25 Jan 06:25:16 06:29:36 51° 288° (WNW) 06:33:56 437.375
HO-68 25 Jan 06:26:28 06:30:08 14° 87° (E) 06:33:48 435.675
O/OREOS (USA 219) 25 Jan 06:30:06 06:34:08 33° 301° (WNW) 06:38:12 437.305
AO-7 25 Jan 06:30:36 06:36:08 20° 313° (NW) 06:41:41 29.400- 29.500
GONETS M04 25 Jan 06:39:50 06:48:44 81° 81° (E) 06:57:36
CUTE 1.7 + AOD 2 25 Jan 06:43:35 06:45:05 12° 88° (E) 06:46:34 437.475
RS-15 25 Jan 06:49:39 07:01:52 57° 44° (NE) 07:13:38 29.354- 29.394
PCSat 25 Jan 06:51:13 06:54:21 15° 35° (NE) 06:57:27 145.827
CINEMA 3 25 Jan 06:52:51 06:56:27 26° 95° (E) 07:00:08 145.822/145.860
NOAA 15 25 Jan 06:58:10 07:03:29 76° 287° (WNW) 07:08:45 137.62
STRAND 1 25 Jan 07:02:50 07:07:52 64° 258° (WSW) 07:12:59 437.568
Cubesat XI-IV 25 Jan 07:08:23 07:13:41 65° 288° (WNW) 07:18:58 437.490
CANX-2 25 Jan 07:12:09 07:15:53 28° 95° (E) 07:19:33 2200.000
SEEDS 25 Jan 07:12:40 07:15:22 16° 91° (E) 07:18:02 437.485
CUBEBUG 2 25 Jan 07:13:41 07:14:54 11° 89° (E) 07:16:08 437.445
GOMX 1 25 Jan 07:30:31 07:32:28 13° 300° (WNW) 07:34:24 467.674
UWE-3 25 Jan 07:30:57 07:31:59 11° 88° (E) 07:33:01 435.000/436.395/437.385
SO-50 25 Jan 07:33:35 07:38:11 53° 309° (NW) 07:42:44 436.795
LilacSat-2 25 Jan 07:35:29 07:38:16 19° 294° (WNW) 07:41:02 437.200
PRISM 25 Jan 07:39:04 07:41:49 17° 64° (ENE) 07:44:33 437.425
DOVE 4 25 Jan 07:41:00 07:44:13 22° 294° (WNW) 07:47:27 437.250
Cosmos 2499 25 Jan 07:42:29 07:48:32 32° 275° (W) 07:54:36 435.465 / 435.565
NOAA 18 25 Jan 07:56:13 08:01:27 48° 291° (WNW) 08:06:39 137.9125
Oscar 11 25 Jan 08:03:24 08:04:55 12° 89° (E) 08:06:25 145.826/435.025
CUTE-I 25 Jan 08:04:13 08:08:19 23° 298° (WNW) 08:12:25 437.470
UNISAT 6 25 Jan 08:07:06 08:08:18 11° 60° (ENE) 08:09:31 437.425
HO-68 25 Jan 08:11:42 08:18:56 81° 106° (ESE) 08:26:06 435.675
CUTE 1.7 + AOD 2 25 Jan 08:17:05 08:21:23 67° 285° (WNW) 08:25:37 437.475
TIGRISAT 25 Jan 08:17:47 08:19:51 13° 61° (ENE) 08:21:54 435.000
CINEMA 3 25 Jan 08:29:55 08:33:34 29° 291° (WNW) 08:37:19 145.822/145.860
ANTELSAT 25 Jan 08:33:12 08:36:19 20° 65° (ENE) 08:39:27 437.575/2403.000
PCSat 25 Jan 08:33:21 08:38:47 68° 57° (ENE) 08:44:11 145.827
GONETS M04 25 Jan 08:38:08 08:44:29 23° 282° (WNW) 08:50:52
NOAA 15 25 Jan 08:40:31 08:42:21 12° 305° (NW) 08:44:11 137.62
COMPASS 1 25 Jan 08:41:58 08:46:12 80° 283° (WNW) 08:50:22 437.405
FUNcube-1 25 Jan 08:44:43 08:48:50 36° 97° (E) 08:52:59 145.935
SEEDS 25 Jan 08:47:13 08:51:18 46° 288° (WNW) 08:55:21 437.485
CUBEBUG 2 25 Jan 08:47:35 08:51:59 76° 284° (WNW) 08:56:31 437.445
AAUSAT CUBESAT 2 25 Jan 08:47:37 08:51:50 90° 222° (SW) 08:55:59 437.432
CANX-2 25 Jan 08:47:59 08:51:40 28° 292° (WNW) 08:55:20 2200.000
Cubesat XI-IV 25 Jan 08:52:22 08:52:44 10° 306° (NW) 08:53:05 437.490
RS-15 25 Jan 09:02:42 09:14:20 52° 249° (WSW) 09:25:35 29.354- 29.394
UWE-3 25 Jan 09:04:29 09:08:55 78° 285° (WNW) 09:13:27 435.000/436.395/437.385
ZACube-1 25 Jan 09:10:50 09:15:17 75° 103° (ESE) 09:19:47 437.345
PRISM 25 Jan 09:12:45 09:16:45 46° 260° (W) 09:20:47 437.425
DELFI C3 25 Jan 09:17:13 09:20:27 23° 94° (E) 09:23:39 145.870
SO-50 25 Jan 09:17:52 09:19:41 12° 330° (NNW) 09:21:30 436.795
JAS-2 25 Jan 09:29:34 09:34:29 33° 63° (ENE) 09:39:55 435.910
Oscar 11 25 Jan 09:37:09 09:41:31 69° 285° (WNW) 09:45:50 145.826/435.025
UNISAT 6 25 Jan 09:40:08 09:44:22 80° 256° (WSW) 09:48:41 437.425
TIGRISAT 25 Jan 09:51:48 09:56:00 64° 258° (WSW) 10:00:15 435.000
HO-68 25 Jan 10:00:35 10:05:52 23° 305° (NW) 10:11:09 435.675
QB50P1 25 Jan 10:01:31 10:04:22 18° 64° (ENE) 10:07:12 145.935-145.965
POLYITAN 1 25 Jan 10:07:10 10:10:16 20° 65° (ENE) 10:13:23 437.675
QB50P2 25 Jan 10:08:26 10:11:42 22° 66° (ENE) 10:14:59 145.880/145.840
ANTELSAT 25 Jan 10:08:48 10:12:46 39° 262° (W) 10:16:48 437.575/2403.000
HUMSAT D 25 Jan 10:09:15 10:13:28 51° 100° (E) 10:17:39 437.325/437.525
PCSat 25 Jan 10:17:58 10:21:37 19° 255° (WSW) 10:25:15 145.827
FUNcube-1 25 Jan 10:21:20 10:24:53 24° 293° (WNW) 10:28:27 145.935
POPSAT HIP 1 25 Jan 10:27:58 10:31:41 32° 69° (ENE) 10:35:26 437.405
DUCHIFAT 1 25 Jan 10:31:48 10:35:28 30° 69° (ENE) 10:39:07 145.980
NANOSAT C BR1 25 Jan 10:40:01 10:43:55 41° 71° (ENE) 10:47:51 145.865
BUGSAT 1 25 Jan 10:45:13 10:47:40 16° 64° (ENE) 10:50:07 437.445
ZACube-1 25 Jan 10:49:02 10:50:59 13° 299° (WNW) 10:52:56 437.345
DELFI C3 25 Jan 10:51:48 10:55:14 28° 291° (WNW) 10:58:39 145.870
ESTCUBE 1 25 Jan 10:55:28 10:58:59 22° 93° (E) 11:02:29 437.505/2401.250
Cosmos 2491 25 Jan 10:57:12 11:02:58 19° 58° (ENE) 11:08:43 435.465 / 435.565
BY70-1 25 Jan 10:59:21 11:02:15 35° 98° (E) 11:04:57 436.1900
JAS-2 25 Jan 11:14:23 11:19:28 38° 265° (W) 11:25:08 435.910
CUBEBUG 1 25 Jan 11:15:04 11:18:16 20° 93° (E) 11:21:25 437.445
CUSAT 1 25 Jan 11:24:29 11:27:46 13° 51° (NE) 11:30:57 437.405
QB50P1 25 Jan 11:35:49 11:39:48 44° 261° (W) 11:43:50 145.935-145.965
AO-85 25 Jan 11:38:29 11:41:14 16° 111° (ESE) 11:43:53 145.980
POLYITAN 1 25 Jan 11:41:56 11:45:49 37° 262° (W) 11:49:44 437.675
Oscar 19 25 Jan 11:42:19 11:46:20 23° 63° (ENE) 11:50:22 437.125/150
QB50P2 25 Jan 11:43:30 11:47:19 34° 263° (W) 11:51:09 145.880/145.840
AISAT 25 Jan 11:45:51 11:49:35 27° 95° (E) 11:53:18 437.250
HUMSAT D 25 Jan 11:45:56 11:48:40 17° 296° (WNW) 11:51:24 437.325/437.525
AO-7 25 Jan 12:00:19 12:01:55 11° 36° (NE) 12:03:33 29.400- 29.500
POPSAT HIP 1 25 Jan 12:04:10 12:07:30 23° 266° (W) 12:10:51 437.405
SPROUT 25 Jan 12:05:39 12:09:29 31° 97° (E) 12:13:17 437.525
DUCHIFAT 1 25 Jan 12:07:47 12:11:09 24° 265° (W) 12:14:32 145.980
NANOSAT C BR1 25 Jan 12:16:57 12:19:49 18° 267° (W) 12:22:42 145.865
VELOX 1 25 Jan 12:18:29 12:22:49 57° 101° (E) 12:27:07 145.980
BUGSAT 1 25 Jan 12:18:48 12:22:41 46° 260° (W) 12:26:35 437.445
UKube-1 25 Jan 12:20:35 12:23:51 21° 94° (E) 12:27:05 .
AIST 1 25 Jan 12:24:21 12:27:00 16° 85° (E) 12:29:38
50 SAT 25 Jan 12:30:36 12:34:08 61° 101° (E) 12:37:36 437.505
BY70-1 25 Jan 12:30:57 12:32:02 11° 297° (WNW) 12:33:05 436.1900
ESTCUBE 1 25 Jan 12:31:42 12:35:55 39° 290° (WNW) 12:40:06 437.505/2401.250
DX 1 25 Jan 12:32:09 12:36:11 37° 98° (E) 12:40:12 434.975-435.025
Gurwin Techsat 1B 25 Jan 12:40:02 12:44:57 40° 68° (ENE) 12:49:55 435.225
Cosmos 2504 25 Jan 12:41:56 12:45:49 14° 76° (ENE) 12:49:36 435.465 / 435.565
CUBEBUG 1 25 Jan 12:50:40 12:54:41 39° 290° (WNW) 12:58:41 437.445
Cosmos 2491 25 Jan 12:52:30 13:01:21 81° 81° (E) 13:10:11 435.465 / 435.565
YUBILEINY 25 Jan 12:58:34 13:06:23 38° 85° (E) 13:14:15 435.215
CUSAT 1 25 Jan 13:03:52 13:11:42 55° 73° (ENE) 13:18:36 437.405
DANDE 25 Jan 13:07:11 13:13:51 27° 65° (ENE) 13:20:39 436.750
TISAT 1 25 Jan 13:13:53 13:17:21 25° 95° (E) 13:20:47 437.305
AO-85 25 Jan 13:16:37 13:21:16 65° 306° (NW) 13:25:34 145.980
Oscar 19 25 Jan 13:20:17 13:25:20 50° 261° (W) 13:30:24 437.125/150
AISAT 25 Jan 13:22:12 13:26:01 30° 292° (WNW) 13:29:49 437.250
SPROUT 25 Jan 13:41:47 13:45:16 25° 293° (WNW) 13:48:43 437.525
AO-7 25 Jan 13:44:47 13:52:25 41° 59° (ENE) 14:00:04 29.400- 29.500
UKube-1 25 Jan 13:56:01 14:00:00 37° 290° (WNW) 14:03:58 .
VELOX 1 25 Jan 13:56:12 13:58:49 16° 298° (WNW) 14:01:27 145.980
AIST 1 25 Jan 14:00:00 14:04:11 46° 282° (WNW) 14:08:23
DX 1 25 Jan 14:08:49 14:12:09 22° 295° (WNW) 14:15:28 434.975-435.025
ITAMSAT 1 25 Jan 14:15:22 14:20:27 61° 72° (ENE) 14:25:34 435.822/435.867
Gurwin Techsat 1B 25 Jan 14:20:30 14:25:00 28° 265° (W) 14:29:33 435.225
SO-50 25 Jan 14:23:32 14:27:31 29° 44° (NE) 14:31:26 436.795
BEESAT 3 25 Jan 14:24:30 14:27:35 23° 114° (ESE) 14:30:44 437.485
ITUPSAT 1 25 Jan 14:28:49 14:33:07 31° 96° (E) 14:37:24 437.325
Cosmos 2504 25 Jan 14:29:22 14:37:53 74° 95° (E) 14:45:51 435.465 / 435.565
CUSAT 1 25 Jan 14:46:22 14:53:13 34° 274° (W) 14:59:24 437.405
DANDE 25 Jan 14:49:09 14:57:17 78° 263° (W) 15:05:32 436.750
TISAT 1 25 Jan 14:49:19 14:52:58 30° 292° (WNW) 14:56:37 437.305
Cosmos 2491 25 Jan 14:50:52 14:57:08 22° 282° (WNW) 15:03:25 435.465 / 435.565
YUBILEINY 25 Jan 14:54:22 15:02:54 52° 286° (WNW) 15:11:31 435.215
O/OREOS (USA 219) 25 Jan 14:58:48 15:03:18 66° 64° (ENE) 15:07:48 437.305
BEESAT 25 Jan 14:59:16 15:04:03 64° 102° (ESE) 15:08:48 436.000
AO-85 25 Jan 15:00:36 15:02:25 12° 325° (NW) 15:04:12 145.980
SWISSCUBE 25 Jan 15:01:30 15:06:20 75° 103° (ESE) 15:11:08 437.505
BEESAT 2 25 Jan 15:21:08 15:24:49 39° 118° (ESE) 15:28:34 435.950
GOMX 1 25 Jan 15:24:57 15:26:49 12° 59° (ENE) 15:28:38 467.674
AO-7 25 Jan 15:36:56 15:44:59 51° 258° (WSW) 15:53:08 29.400- 29.500
KKS-1 25 Jan 15:40:34 15:43:25 17° 92° (E) 15:46:16 437.445
MOZHAYETS 4 25 Jan 15:41:24 15:46:00 57° 100° (E) 15:50:34
BRITE-PL 25 Jan 15:46:26 15:51:46 44° 70° (ENE) 15:56:57 437.365/2234.400
HORYU 2 25 Jan 15:49:19 15:52:24 19° 63° (ENE) 15:55:32 437.375
M-CUBED/EXP-1 PRIME 25 Jan 15:53:25 15:54:55 13° 97° (E) 15:56:25 437.505
ITAMSAT 1 25 Jan 15:56:57 16:00:20 18° 269° (W) 16:03:45 435.822/435.867
BEESAT 3 25 Jan 16:01:25 16:05:01 35° 312° (NW) 16:08:42 437.485
SO-50 25 Jan 16:03:52 16:08:02 38° 243° (WSW) 16:12:10 436.795
ITUPSAT 1 25 Jan 16:06:40 16:10:53 31° 293° (WNW) 16:15:05 437.325
CUTE-I 25 Jan 16:09:41 16:12:36 15° 58° (ENE) 16:15:32 437.470
STARS 25 Jan 16:17:24 16:20:29 19° 93° (E) 16:23:34 437.465
AUBIESAT-1 25 Jan 16:24:00 16:26:46 24° 102° (ESE) 16:29:31 437.475
Cosmos 2504 25 Jan 16:25:18 16:31:58 25° 294° (WNW) 16:38:20 435.465 / 435.565
DANDE 25 Jan 16:33:55 16:38:53 18° 281° (W) 16:43:54 436.750
BEESAT 25 Jan 16:38:20 16:41:19 17° 299° (WNW) 16:44:18 436.000
O/OREOS (USA 219) 25 Jan 16:40:03 16:42:08 13° 262° (W) 16:44:13 437.305
SWISSCUBE 25 Jan 16:40:57 16:43:30 15° 301° (WNW) 16:46:05 437.505
NOAA 15 25 Jan 16:40:57 16:45:25 28° 64° (ENE) 16:49:53 137.62
CUBESAT XI-V 25 Jan 16:42:48 16:47:12 39° 97° (E) 16:51:31 437.345
LilacSat-2 25 Jan 16:44:18 16:47:11 21° 67° (ENE) 16:50:07 437.200
Cubesat XI-IV 25 Jan 16:52:35 16:57:17 33° 66° (ENE) 17:02:01 437.490
HO-68 25 Jan 16:57:58 17:01:50 15° 49° (NE) 17:05:41 435.675
GOMX 1 25 Jan 16:58:53 17:04:11 82° 76° (ENE) 17:09:11 467.674
BEESAT 2 25 Jan 16:59:30 17:02:44 23° 316° (NW) 17:06:01 435.950
YUBILEINY 25 Jan 17:00:21 17:02:17 11° 311° (NW) 17:04:13 435.215
DOVE 4 25 Jan 17:09:05 17:13:36 42° 71° (ENE) 17:17:54 437.250
KKS-1 25 Jan 17:15:58 17:20:15 49° 289° (WNW) 17:24:31 437.445
MOZHAYETS 4 25 Jan 17:19:41 17:22:43 17° 298° (WNW) 17:25:44
HORYU 2 25 Jan 17:24:24 17:28:38 46° 260° (W) 17:32:54 437.375
BRITE-PL 25 Jan 17:25:29 17:30:19 28° 266° (W) 17:35:03 437.365/2234.400
M-CUBED/EXP-1 PRIME 25 Jan 17:26:35 17:29:37 34° 294° (WNW) 17:32:36 437.505
CUTE 1.7 + AOD 2 25 Jan 17:38:29 17:39:36 11° 60° (ENE) 17:40:43 437.475
